Location: *
(45.9500°N, 9.0833°E)
Time: 02:23:46
(UTC+00:00)

SR - Pass Details

Date: 23 June 2021
Orbit: 577 x 878 km, 66.7° (Epoch: 23 July)

Event Time Altitude Azimuth Distance (km) Brightness Sun altitude
Rises 14:00:49 0° 180° (S) 3,443 ? 51.6°
Reaches altitude 10° 14:03:33 10° 170° (S) 2,522 ? 51.1°
Maximum altitude 14:08:37 31° 110° (ESE) 1,493 ? 50.3°
Drops below altitude 10° 14:13:40 10° 51° (NE) 2,505 ? 49.5°
Sets 14:16:21 0° 41° (NE) 3,417 ? 49.1°
